GOKTURK 1A (41875 NORAD) Tracking and Keplerian Element Data

This shows tracking and keplerian element data for the satellite.

Feedback or suggestion? Click here.




ElementValue
Catalog41875
NameGOKTURK 1A
Epoch Orbit11727
Epoch Day46.82291741
Epoch Year2019
RAAN303.082
Inclination98.1476
Eccentricity0.0001436
Argument of Perigee76.9561
Mean Anonmoly283.1811
Mean Motion14.62758994
Decay Rate2.9E-07
L11 41875U 16073A 19046.82291741 .00000029 00000-0 14792-4 0 9994
L22 41875 98.1476 303.0820 0001436 76.9561 283.1811 14.62758994117273

Live tracking and technical data element details for GOKTURK 1A (NORAD 41875). GOKTURK 1A can be tracked NOW for your location showing map with azimuth and elevation plus other details from your city location.

Track the satellite on the map from your city or location and see movement details for azimuth, elevation, latitude, longitude, range, height, and movement on the map or in text.







IsCatalogInMostPopularTable: catalog: 41875, numindb: 168
Update: records affected: 1



GetName: 41875 GOKTURK 1A

Hit Count: updated at: Sat, 16 Feb 2019 17:04:11 GMT